Location: Newark
(33.6439°N, 114.9881°W)
Time: 09:54:09
(UTC+00:00)

Tiros 1 - Pass Details

Date: 22 July 2019
Orbit: 630 x 664 km, 48.4° (Epoch: 19 August)

Event Time Altitude Azimuth Distance (km) Brightness Sun altitude
Rises 03:35:26 0° 289° (WNW) 2,979 12.4 -9.5°
Reaches altitude 10° 03:38:38 10° 267° (W) 2,057 10.6 -10.1°
Maximum altitude 03:41:23 15° 232° (SW) 1,717 9.6 -10.5°
Drops below altitude 10° 03:44:06 10° 196° (SSW) 2,038 9.5 -11.0°
Enters shadow 03:46:44 - 176° (S) 2,757 10.0 -11.5°
Sets 03:47:17 0° 174° (S) 2,935 - -11.6°
